Arlington, TX

2:02 PM CDT on March 26, 2017 (GMT -0500)
Arlington Municipal

Weather History for KGKY - March, 2013

Change the Weather History Date:

Friday, March 8, 2013

  Actual Average (KRBD) Record (KRBD)
Temperature  
Mean Temperature 58 °F -  
Max Temperature 62 °F 61 °F 82 °F (2009)
Min Temperature 55 °F 42 °F 24 °F (2008)
Degree Days  
Heating Degree Days 7    
Growing Degree Days 8 (Base 50)    
Moisture  
Dew Point 52 °F    
Average Humidity 79    
Maximum Humidity 88    
Minimum Humidity 60    
Precipitation  
Precipitation 0.01 in - - ()
Sea Level Pressure  
Sea Level Pressure 30.08 in    
Wind  
Wind Speed 12 mph (SE)    
Max Wind Speed 18 mph    
Max Gust Speed 24 mph    
Visibility 10 miles    
Events Rain    
Averages and records for this station are not official NWS values.
T = Trace of Precipitation, MM = Missing Value Source: NWS Daily Summary

Daily Weather History Graph

Daily Weather History Graph

Search for Another Location

Airport or City:

Trip Planner

Search our weather history database for the weather conditions in past years. The results will help you decide how hot, cold, wet, or windy it might be!

Date:

Astronomy

Mar. 08, 2013 Rise Set
Actual Time 6:47 AM CST 6:31 PM CST
Civil Twilight 6:22 AM CST 6:55 PM CST
Nautical Twilight 5:54 AM CST 7:24 PM CST
Astronomical Twilight 5:25 AM CST 7:53 PM CST
Moon 4:23 AM CST (3/8) 3:35 PM CST (3/8)
Length of Visible Light 12h 33m
Length of Day
11h 44m
Waning Crescent, 11% of the Moon is Illuminated
Mar 8
Waning Crescent
Mar 11
New
Mar 19
First Quarter
Mar 27
Full
Apr 2
Last Quarter

Hourly Weather History & Observations

Time (CST) Temp. Dew Point Humidity Pressure Visibility Wind Dir Wind Speed Gust Speed Precip Events Conditions
12:53 AM 55.9 °F 42.1 °F 60% 30.12 in 10.0 mi SSE 9.2 mph - N/A   Clear
1:53 AM 55.9 °F 45.0 °F 67% 30.11 in 10.0 mi SSE 10.4 mph - N/A   Clear
2:53 AM 55.0 °F 46.0 °F 72% 30.10 in 10.0 mi SSE 13.8 mph - N/A   Clear
3:53 AM 55.9 °F 46.9 °F 72% 30.09 in 10.0 mi SSE 12.7 mph - N/A   Mostly Cloudy
4:53 AM 55.9 °F 48.0 °F 75% 30.09 in 10.0 mi SE 12.7 mph - N/A   Mostly Cloudy
5:08 AM 55.4 °F 48.2 °F 77% 30.11 in 10.0 mi SSE 10.4 mph - N/A   Mostly Cloudy
5:30 AM 55.4 °F 48.2 °F 77% 30.11 in 10.0 mi SE 8.1 mph - N/A   Mostly Cloudy
5:53 AM 55.0 °F 48.0 °F 77% 30.10 in 10.0 mi SE 11.5 mph - N/A   Partly Cloudy
6:39 AM 55.4 °F 48.2 °F 77% 30.12 in 10.0 mi SE 8.1 mph - N/A   Mostly Cloudy
6:53 AM 55.9 °F 48.9 °F 77% 30.11 in 10.0 mi SE 10.4 mph - N/A   Overcast
7:53 AM 55.9 °F 48.9 °F 77% 30.14 in 10.0 mi SE 10.4 mph - N/A   Overcast
8:53 AM 57.0 °F 50.0 °F 77% 30.17 in 10.0 mi SE 11.5 mph - N/A   Overcast
9:53 AM 57.9 °F 51.1 °F 78% 30.17 in 10.0 mi SE 11.5 mph - N/A   Overcast
10:53 AM 60.1 °F 52.0 °F 75% 30.15 in 10.0 mi SSE 15.0 mph - N/A   Overcast
11:53 AM 60.1 °F 52.0 °F 75% 30.13 in 10.0 mi SE 18.4 mph 24.2 mph N/A   Overcast
12:13 PM 60.8 °F 53.6 °F 77% 30.13 in 10.0 mi SE 18.4 mph 21.9 mph N/A   Overcast
12:35 PM 60.8 °F 53.6 °F 77% 30.13 in 10.0 mi SE 13.8 mph - N/A   Overcast
12:53 PM 59.0 °F 54.0 °F 83% 30.12 in 10.0 mi SSE 15.0 mph - 0.00 in Rain Light Rain
1:53 PM 59.0 °F 55.0 °F 87% 30.08 in 10.0 mi SE 13.8 mph - 0.01 in   Overcast
2:41 PM 59.0 °F 55.4 °F 88% 30.08 in 10.0 mi SE 12.7 mph - N/A   Overcast
2:53 PM 59.0 °F 55.0 °F 87% 30.07 in 10.0 mi SE 9.2 mph - N/A   Overcast
3:53 PM 60.1 °F 55.9 °F 86% 30.06 in 10.0 mi SE 10.4 mph - N/A   Overcast
4:53 PM 61.0 °F 57.0 °F 87% 30.02 in 10.0 mi SE 16.1 mph 21.9 mph N/A   Overcast
5:01 PM 60.8 °F 57.2 °F 88% 30.04 in 10.0 mi SE 12.7 mph - N/A   Overcast
5:51 PM 60.8 °F 55.4 °F 82% 30.03 in 10.0 mi SE 13.8 mph - N/A   Overcast
5:53 PM 61.0 °F 55.9 °F 83% 30.01 in 10.0 mi SE 16.1 mph 21.9 mph N/A   Overcast
6:53 PM 61.0 °F 55.9 °F 83% 30.02 in 10.0 mi SE 11.5 mph - N/A   Overcast
7:53 PM 61.0 °F 55.9 °F 83% 30.02 in 10.0 mi SE 9.2 mph - N/A   Overcast
8:53 PM 60.1 °F 55.0 °F 83% 30.02 in 10.0 mi SE 6.9 mph - N/A   Partly Cloudy
9:53 PM 61.0 °F 55.9 °F 83% 30.01 in 10.0 mi SE 12.7 mph 20.7 mph N/A   Mostly Cloudy
10:53 PM 61.0 °F 55.9 °F 83% 30.00 in 10.0 mi SE 11.5 mph - N/A   Overcast
11:53 PM 62.1 °F 55.0 °F 78% 29.98 in 10.0 mi SSE 16.1 mph 24.2 mph N/A   Overcast